GW0126 Weather Reports


Display with metric or nautical units.
time (UTC)temp
F
wind
direction
speed
MPH
gust
MPH
rain 1hr
in
rain 24hr
in
rain mn
in
humidity
%
barometer
mb
20260510153354 70 258 0.0 1.0 0.00 0.00 0.00 47 1010.2
20260510152334 68 215 0.0 1.0 0.00 0.00 0.00 47 1010.2
20260510151311 71 180 0.0 1.0 0.00 0.00 0.00 44 1010.4
20260510150801 69 275 0.0 1.0 0.00 0.00 0.00 46 1010.4
20260510150332 70 213 1.0 2.0 0.00 0.00 0.00 46 1010.4
20260510143701 75 242 1.0 2.0 0.00 0.00 0.00 41 1010.7
20260510143150 74 215 0.0 1.0 0.00 0.00 0.00 40 1010.6
20260510142640 74 139 2.0 2.0 0.00 0.00 0.00 39 1011.0
20260510142130 72 231 0.0 1.0 0.00 0.00 0.00 41 1010.9
20260510141620 73 207 0.0 1.0 0.00 0.00 0.00 41 1011.2
20260510141110 73 187 1.0 2.0 0.00 0.00 0.00 43 1011.2
20260510140639 73 197 0.0 2.0 0.00 0.00 0.00 41 1011.2
20260510140050 72 189 0.0 2.0 0.00 0.00 0.00 42 1010.9
20260510135540 72 196 2.0 3.0 0.00 0.00 0.00 43 1011.1
20260510135030 72 200 1.0 3.0 0.00 0.00 0.00 43 1011.5
20260510134559 72 205 0.0 2.0 0.00 0.00 0.00 42 1011.4
20260510134010 72 173 1.0 2.0 0.00 0.00 0.00 44 1011.5
20260510132952 72 170 1.0 3.0 0.00 0.00 0.00 45 1011.5
20260510132440 72 237 0.0 1.0 0.00 0.00 0.00 43 1011.5
20260510131930 72 197 0.0 1.0 0.00 0.00 0.00 46 1011.4
20260510131458 72 222 1.0 2.0 0.00 0.00 0.00 44 1011.7
20260510130910 72 243 1.0 1.0 0.00 0.00 0.00 46 1011.6
20260510130400 72 225 0.0 1.0 0.00 0.00 0.00 45 1011.7
20260510125850 72 261 1.0 2.0 0.00 0.00 0.00 45 1011.6
20260510125340 71 191 0.0 0.0 0.00 0.00 0.00 48 1011.8
20260510124908 71 174 1.0 2.0 0.00 0.00 0.00 47 1011.9
20260510124358 72 178 0.0 1.0 0.00 0.00 0.00 47 1011.8
20260510123810 71 210 0.0 0.0 0.00 0.00 0.00 47 1011.8
20260510123300 71 164 2.0 2.0 0.00 0.00 0.00 48 1011.9
20260510122832 70 182 0.0 3.0 0.00 0.00 0.00 48 1012.0
20260510122240 69 242 1.0 1.0 0.00 0.00 0.00 47 1012.0
20260510121730 70 166 2.0 3.0 0.00 0.00 0.00 48 1012.1
20260510121220 70 210 1.0 2.0 0.00 0.00 0.00 50 1012.0
20260510120200 71 172 0.0 4.0 0.00 0.00 0.00 50 1012.2
20260510114630 70 192 1.0 6.0 0.00 0.00 0.00 50 1012.4
20260510113610 70 169 2.0 3.0 0.00 0.00 0.00 48 1012.7
20260510113100 69 226 0.0 2.0 0.00 0.00 0.00 50 1012.7
20260510112628 69 175 1.0 4.0 0.00 0.00 0.00 53 1012.7
20260510112040 67 197 0.0 1.0 0.00 0.00 0.00 53 1012.8
20260510111020 66 241 0.0 1.0 0.00 0.00 0.00 55 1012.8
20260510110510 66 170 0.0 1.0 0.00 0.00 0.00 55 1013.2
20260510110000 66 224 0.0 2.0 0.00 0.00 0.00 55 1012.9
20260510105450 68 203 2.0 2.0 0.00 0.00 0.00 53 1012.9
20260510104940 68 143 2.0 3.0 0.00 0.00 0.00 52 1013.2
20260510104433 67 169 1.0 4.0 0.00 0.00 0.00 56 1013.1
20260510103920 68 192 0.0 2.0 0.00 0.00 0.00 53 1013.1
20260510103410 69 188 1.0 2.0 0.00 0.00 0.00 52 1013.1
20260510102900 68 196 0.0 1.0 0.00 0.00 0.00 54 1013.2
20260510101840 68 191 0.0 2.0 0.00 0.00 0.00 54 1013.4
20260510101330 68 193 2.0 4.0 0.00 0.00 0.00 53 1013.2
20260510100820 68 184 1.0 3.0 0.00 0.00 0.00 54 1013.4
20260510100310 67 194 1.0 3.0 0.00 0.00 0.00 52 1013.4
20260510095800 68 149 0.0 1.0 0.00 0.00 0.00 52 1013.5
20260510095328 68 177 1.0 2.0 0.00 0.00 0.00 53 1013.4
20260510094818 67 205 0.0 1.0 0.00 0.00 0.00 55 1013.4
20260510093720 67 158 2.0 2.0 0.00 0.00 0.00 52 1013.8
20260510093209 66 216 0.0 2.0 0.00 0.00 0.00 57 1014.0
20260510092703 66 194 1.0 1.0 0.00 0.00 0.00 57 1013.9
20260510092150 66 178 1.0 2.0 0.00 0.00 0.00 56 1013.9
20260510091640 65 183 0.0 2.0 0.00 0.00 0.00 57 1013.9
20260510090619 65 222 1.0 4.0 0.00 0.00 0.00 57 1013.8
20260510090109 65 203 0.0 1.0 0.00 0.00 0.00 57 1013.9
20260510084618 65 190 2.0 3.0 0.00 0.00 0.00 57 1014.1
20260510083519 65 217 0.0 1.0 0.00 0.00 0.00 58 1014.2
20260510083012 65 219 0.0 2.0 0.00 0.00 0.00 60 1014.0
20260510082538 64 178 1.0 3.0 0.00 0.00 0.00 59 1014.2
20260510081952 63 155 1.0 4.0 0.00 0.00 0.00 61 1014.4
20260510081518 64 140 3.0 4.0 0.00 0.00 0.00 60 1014.3
20260510080929 63 152 1.0 3.0 0.00 0.00 0.00 61 1014.1
20260510080419 63 193 1.0 4.0 0.00 0.00 0.00 61 1014.6
20260510075948 62 187 1.0 2.0 0.00 0.00 0.00 64 1014.4
20260510075359 62 243 1.0 1.0 0.00 0.00 0.00 63 1014.6
20260510074849 62 160 2.0 3.0 0.00 0.00 0.00 63 1014.8
20260510073829 61 168 2.0 2.0 0.00 0.00 0.00 64 1014.8
20260510073319 60 221 1.0 2.0 0.00 0.00 0.00 65 1014.8
20260510072809 60 189 0.0 2.0 0.00 0.00 0.00 69 1014.9
20260510072259 60 199 1.0 3.0 0.00 0.00 0.00 67 1015.0
20260510071239 59 182 3.0 4.0 0.00 0.00 0.00 69 1015.1
20260510070732 58 173 0.0 3.0 0.00 0.00 0.00 73 1014.9
20260510070219 57 190 1.0 2.0 0.00 0.00 0.00 75 1014.9
20260510064139 55 200 1.0 2.0 0.00 0.00 0.00 78 1014.8
20260510062609 53 202 0.0 1.0 0.00 0.00 0.00 82 1015.1
20260510062059 52 182 0.0 2.0 0.00 0.00 0.00 82 1015.2
20260510061549 52 204 0.0 1.0 0.00 0.00 0.00 85 1014.9
20260510061045 51 204 0.0 4.0 0.00 0.00 0.00 84 1015.2
20260510060529 51 198 1.0 1.0 0.00 0.00 0.00 86 1015.4
20260510054449 48 198 0.0 1.0 0.00 0.00 0.00 89 1015.3
20260510053429 48 216 0.0 1.0 0.00 0.00 0.00 90 1015.5
20260510052922 47 200 1.0 1.0 0.00 0.00 0.00 90 1015.3
20260510052409 47 202 0.0 1.0 0.00 0.00 0.00 91 1015.6
20260510051859 47 207 0.0 1.0 0.00 0.00 0.00 92 1015.3
20260510051349 46 198 0.0 1.0 0.00 0.00 0.00 93 1015.3
20260510050839 46 173 0.0 1.0 0.00 0.00 0.00 94 1015.3
20260510045900 45 156 1.0 1.0 0.00 0.00 0.00 97 1015.4
20260510045309 45 179 0.0 3.0 0.00 0.00 0.00 99 1015.4
20260510043739 42 214 0.0 0.0 0.00 0.00 0.00 99 1015.6
20260510043229 42 214 0.0 0.0 0.00 0.00 0.00 99 1015.5
20260510042756 41 214 0.0 0.0 0.00 0.00 0.00 99 1015.5
20260510041659 41 214 0.0 0.0 0.00 0.00 0.00 99 1015.5
20260510041149 40 214 0.0 0.0 0.00 0.00 0.00 99 1015.8
20260510040207 40 214 0.0 0.0 0.00 0.00 0.00 99 1015.8
20260510034559 40 214 0.0 0.0 0.00 0.00 0.00 99 1015.8
20260510032008 40 212 0.0 0.0 0.00 0.00 0.00 98 1016.3
20260510031501 40 212 0.0 0.0 0.00 0.00 0.00 98 1016.3
20260510025928 40 212 0.0 0.0 0.00 0.00 0.00 98 1016.3
20260510025418 40 212 0.0 0.0 0.00 0.00 0.00 98 1016.2
20260510024910 40 212 0.0 0.0 0.00 0.00 0.00 98 1016.1
20260510024358 40 212 0.0 0.0 0.00 0.00 0.00 98 1016.2
20260510022906 41 212 0.0 0.0 0.00 0.00 0.00 98 1016.0
20260510022318 41 212 0.0 0.0 0.00 0.00 0.00 98 1016.3
20260510021421 42 215 0.0 0.0 0.00 0.00 0.00 98 1016.2
20260510020238 41 173 0.0 0.0 0.00 0.00 0.00 98 1016.7
20260510014746 41 173 0.0 0.0 0.00 0.00 0.00 97 1016.7
20260510013301 41 173 0.0 0.0 0.00 0.00 0.00 97 1016.7
20260510012631 41 173 0.0 0.0 0.00 0.00 0.00 97 1016.7
20260510012118 41 173 0.0 0.0 0.00 0.00 0.00 97 1016.7
20260510011058 41 173 0.0 0.0 0.00 0.00 0.00 97 1017.1
20260510010038 41 173 0.0 0.0 0.00 0.00 0.00 97 1016.9
20260510003526 42 173 0.0 0.0 0.00 0.00 0.00 96 1017.5
20260510002941 42 173 0.0 0.0 0.00 0.00 0.00 96 1017.6
20260510002506 42 173 0.0 0.0 0.00 0.00 0.00 96 1017.5
20260510001918 42 173 0.0 0.0 0.00 0.00 0.00 96 1017.9
20260510000939 42 173 0.0 0.0 0.00 0.00 0.00 96 1017.9
20260509235838 42 173 0.0 0.0 0.00 0.00 0.00 96 1018.1
20260509235328 42 173 0.0 0.0 0.00 0.00 0.00 96 1018.0
20260509234818 43 173 0.0 0.0 0.00 0.00 0.00 96 1018.0
20260509234308 43 173 0.0 0.0 0.00 0.00 0.00 96 1018.1
20260509233758 43 173 0.0 0.0 0.00 0.00 0.00 96 1018.3
20260509233248 43 173 0.0 0.0 0.00 0.00 0.00 96 1018.1
20260509232741 43 173 0.0 0.0 0.00 0.00 0.00 95 1018.3
20260509232228 43 173 0.0 0.0 0.00 0.00 0.00 95 1018.3
20260509230736 43 173 0.0 0.0 0.00 0.00 0.00 95 1018.5
20260509230147 43 173 0.0 0.0 0.00 0.00 0.00 95 1018.5
20260509225128 43 173 0.0 0.0 0.00 0.00 0.00 95 1018.5
20260509224618 44 173 0.0 0.0 0.00 0.00 0.00 95 1018.7
20260509224107 44 173 0.0 0.0 0.00 0.00 0.00 95 1018.9
20260509222616 44 173 0.0 0.0 0.00 0.00 0.00 94 1018.7
20260509222106 44 173 0.0 0.0 0.00 0.00 0.00 94 1018.8
20260509221007 44 173 0.0 0.0 0.00 0.00 0.00 94 1018.6
20260509220457 45 173 0.0 0.0 0.00 0.00 0.00 94 1018.8
20260509215947 45 173 0.0 0.0 0.00 0.00 0.00 94 1018.6
20260509215516 45 173 0.0 0.0 0.00 0.00 0.00 93 1018.7
20260509215009 45 173 0.0 0.0 0.00 0.00 0.00 93 1018.9
20260509214417 45 173 0.0 0.0 0.00 0.00 0.00 93 1018.9
20260509213357 45 173 0.0 0.0 0.00 0.00 0.00 93 1018.9
20260509212847 45 173 0.0 0.0 0.00 0.00 0.00 92 1019.0
20260509211827 46 173 0.0 0.0 0.00 0.00 0.00 92 1018.9
20260509205747 47 173 0.0 0.0 0.00 0.00 0.00 91 1018.7
20260509203707 47 173 0.0 0.0 0.00 0.00 0.00 89 1018.9
20260509203157 47 173 0.0 0.0 0.00 0.00 0.00 89 1019.1
20260509202140 48 173 0.0 0.0 0.00 0.00 0.00 88 1019.2
20260509201627 48 173 0.0 0.0 0.00 0.00 0.00 88 1018.9
20260509201117 48 173 0.0 0.0 0.00 0.00 0.00 87 1019.1
20260509200057 49 173 0.0 0.0 0.00 0.00 0.00 85 1018.8
20260509195550 49 173 0.0 0.0 0.00 0.00 0.00 84 1019.0
20260509195037 49 173 0.0 0.0 0.00 0.00 0.00 83 1018.9
20260509194608 50 173 0.0 0.0 0.00 0.00 0.00 82 1018.8
20260509194017 50 173 0.0 0.0 0.00 0.00 0.00 81 1019.0
20260509193510 51 173 0.0 0.0 0.00 0.00 0.00 81 1018.9
20260509192957 51 173 0.0 0.0 0.00 0.00 0.00 80 1018.8
20260509191427 53 173 0.0 0.0 0.00 0.00 0.00 77 1018.6
20260509190917 53 173 0.0 0.0 0.00 0.00 0.00 76 1018.8
20260509190407 54 173 0.0 0.0 0.00 0.00 0.00 75 1018.8
20260509185935 54 173 0.0 0.0 0.00 0.00 0.00 73 1018.6
20260509184837 56 173 0.0 0.0 0.00 0.00 0.00 71 1018.7
20260509184327 56 173 0.0 0.0 0.00 0.00 0.00 70 1018.5
20260509183855 56 173 0.0 0.0 0.00 0.00 0.00 69 1018.7
20260509182247 58 173 0.0 0.0 0.00 0.00 0.00 66 1018.6
20260509181737 59 173 0.0 1.0 0.00 0.00 0.00 64 1018.6
20260509180839 59 172 0.0 0.0 0.00 0.00 0.00 63 1018.6
20260509180207 59 169 0.0 0.0 0.00 0.00 0.00 61 1018.5
20260509175657 60 169 0.0 2.0 0.00 0.00 0.00 61 1018.6
20260509175146 60 168 0.0 1.0 0.00 0.00 0.00 62 1018.5
20260509174637 60 168 0.0 0.0 0.00 0.00 0.00 62 1018.6
20260509174127 59 164 0.0 2.0 0.00 0.00 0.00 60 1018.5
20260509173616 60 215 1.0 1.0 0.00 0.00 0.00 61 1018.5
20260509173109 60 146 1.0 2.0 0.00 0.00 0.00 59 1018.4
20260509172047 60 241 0.0 1.0 0.00 0.00 0.00 59 1018.4
20260509171536 60 170 0.0 1.0 0.00 0.00 0.00 59 1018.7
20260509165535 61 200 0.0 1.0 0.00 0.00 0.00 58 1018.9
20260509163416 62 204 1.0 1.0 0.00 0.00 0.00 55 1019.0
20260509162906 62 212 0.0 1.0 0.00 0.00 0.00 56 1019.1
20260509162356 62 189 0.0 1.0 0.00 0.00 0.00 56 1019.0
20260509161336 62 224 0.0 1.0 0.00 0.00 0.00 57 1019.3
20260509160826 62 194 0.0 1.0 0.00 0.00 0.00 56 1019.1
20260509160316 62 227 0.0 0.0 0.00 0.00 0.00 58 1019.0
20260509155806 62 234 0.0 0.0 0.00 0.00 0.00 57 1019.3
20260509155256 62 230 1.0 1.0 0.00 0.00 0.00 57 1019.4
20260509154746 62 204 0.0 1.0 0.00 0.00 0.00 55 1019.4
20260509154239 62 241 1.0 1.0 0.00 0.00 0.00 56 1019.5
20260509153726 62 231 0.0 1.0 0.00 0.00 0.00 56 1019.6